Date and Time,30m Wind Direction,30m Wind Speed,30m Wind Vert,30m Quality,40m Wind Direction,40m Wind Speed,40m Wind Vert,40m Quality,50m Wind Direction,50m Wind Speed,50m Wind Vert,50m Quality,60m Wind Direction,60m Wind Speed,60m Wind Vert,60m Quality,80m Wind Direction,80m Wind Speed,80m Wind Vert,80m Quality,100m Wind Direction,100m Wind Speed,100m Wind Vert,100m Quality,120m Wind Direction,120m Wind Speed,120m Wind Vert,120m Quality,140m Wind Direction,140m Wind Speed,140m Wind Vert,140m Quality,160m Wind Direction,160m Wind Speed,160m Wind Vert,160m Quality,180m Wind Direction,180m Wind Speed,180m Wind Vert,180m Quality,200m Wind Direction,200m Wind Speed,200m Wind Vert,200m Quality,30m Wind Turbulence,40m Wind Turbulence,50m Wind Turbulence,60m Wind Turbulence,80m Wind Turbulence,100m Wind Turbulence,120m Wind Turbulence,140m Wind Turbulence,160m Wind Turbulence,180m Wind Turbulence,200m Wind Turbulence
8/7/2018 12:00 AM,207.20,7.57,-0.05,98,212.10,8.12,-0.11,98,212.60,8.62,-0.10,98,212.50,8.63,-0.07,97,215.40,9.19,-0.10,98,211.50,9.33,-0.15,97,213.10,9.67,-0.13,94,210.10,8.93,-0.14,89,203.20,9.46,-0.30,88,210.10,9.13,-0.21,91,210.30,10.67,-0.13,93,0.07,0.06,0.05,0.09,0.05,0.07,0.06,0.18,0.23,0.15,0.07
8/7/2018 12:10 AM,210.00,6.90,-0.04,98,213.80,7.81,-0.03,97,213.20,8.49,-0.02,98,215.60,8.41,-0.04,98,216.60,8.77,-0.05,96,207.80,8.96,-0.12,94,204.40,8.63,0.03,90,212.50,8.21,-0.04,76,205.40,9.10,-0.09,87,215.10,10.04,0.02,91,218.50,10.30,-0.20,91,0.07,0.06,0.05,0.07,0.08,0.16,0.22,0.25,0.20,0.13,0.13
8/7/2018 12:20 AM,210.30,8.39,0.02,99,213.80,8.66,-0.02,99,213.30,9.24,-0.01,99,211.40,9.21,0.03,98,213.90,10.03,-0.05,97,212.20,9.74,0.07,94,207.50,8.98,0.00,89,205.70,9.79,0.02,77,226.50,8.21,0.03,31,192.10,6.28,-0.13,70,221.00,10.42,-0.29,83,0.06,0.05,0.05,0.05,0.10,0.12,0.35,0.45,0.75,0.50,0.34
8/7/2018 12:30 AM,209.50,7.45,0.01,98,213.70,8.41,-0.05,96,209.40,8.92,0.08,92,204.80,10.60,-0.16,91,204.60,9.14,-0.64,70,190.40,9.07,-0.77,57,155.80,13.67,-1.59,30,168.50,10.10,-1.80,11,158.00,20.11,-2.28,11,157.10,9.76,-3.72,18,144.50,19.57,-3.86,13,0.08,0.09,0.14,0.24,0.67,1.93,0.52,0.57,0.50,0.90,0.48
8/7/2018 12:40 AM,203.20,8.09,0.06,97,202.10,8.58,0.13,93,204.20,9.25,0.15,88,199.30,10.20,0.24,64,198.30,8.08,0.25,24,178.80,10.80,0.13,20,196.50,12.48,0.26,26,159.30,11.61,0.39,11,178.30,9.87,1.12,15,177.30,5.20,1.50,12,151.90,10.84,1.85,8,0.07,0.10,0.15,0.17,0.53,0.23,0.20,0.35,0.31,1.32,0.30
8/7/2018 12:50 AM,208.50,7.92,-0.02,92,210.20,7.39,0.14,87,215.40,5.20,0.12,43,212.80,10.63,0.11,24,244.30,6.51,-0.10,10,286.70,7.66,0.90,2,7.80,3.13,0.26,6,144.10,1.82,0.64,10,320.10,10.99,0.29,2,358.30,5.64,0.72,1,338.70,19.30,-1.50,1,0.12,0.23,0.66,0.31,0.47,1.20,0.54,0.53,0.49,0.69,0.23
8/7/2018 1:00 AM,204.30,8.81,-0.04,92,200.10,9.01,0.05,70,211.70,7.15,0.29,30,214.10,6.83,0.12,20,210.80,9.31,-0.30,7,203.00,11.61,0.05,5,271.50,8.28,0.07,1,209.30,8.91,1.51,2,282.70,20.75,-2.62,0,322.00,13.67,0.15,0,41.70,7.20,1.98,1,0.12,0.11,0.23,1.28,0.47,0.59,0.30,0.32,0.14,0.47,0.37
8/7/2018 1:10 AM,198.80,7.91,0.08,77,205.90,8.53,-0.01,24,241.20,4.52,0.32,12,234.20,4.59,0.36,10,192.70,8.51,-0.23,2,302.80,3.00,0.85,2,4.90,5.05,0.31,0,270.00,2.97,1.79,2,337.00,8.12,-2.22,1,25.90,17.83,0.43,1,32.90,8.65,1.74,1,0.14,0.19,0.73,1.45,0.24,0.26,0.36,0.30,0.77,0.04,0.30
8/7/2018 1:20 AM,208.60,6.04,-0.02,45,218.20,7.29,0.14,8,4.60,3.42,0.30,0,339.70,9.41,0.73,0,23.80,9.99,1.40,0,359.90,11.28,0.83,0,334.60,10.79,1.38,0,359.90,5.87,0.43,0,359.90,10.42,0.77,0,3.20,10.10,0.66,0,18.60,9.16,1.16,0,0.15,0.20,0.32,0.06,0.03,0.01,0.02,0.11,0.01,0.06,0.20
8/7/2018 1:30 AM,208.70,5.37,-0.03,56,215.70,5.42,0.27,31,225.20,4.16,-0.22,1,227.40,8.04,-0.59,3,298.20,8.40,0.64,4,333.80,8.74,1.58,1,344.00,7.30,0.81,0,287.70,36.10,-3.71,0,328.10,11.45,1.59,0,334.40,13.73,1.77,0,335.40,5.01,2.09,0,0.19,0.27,0.38,0.21,0.20,0.22,0.35,0.06,0.09,0.08,0.79
8/7/2018 1:40 AM,210.60,6.32,-0.11,91,205.60,6.63,-0.05,56,211.00,7.54,-0.04,27,224.20,11.14,-0.06,8,203.60,10.39,-0.36,1,224.00,6.19,-0.24,2,172.60,5.89,-0.74,2,178.10,12.01,-0.94,0,224.00,18.07,0.86,0,169.50,11.66,-1.15,0,60.10,0.75,-0.07,0,0.08,0.10,0.19,0.12,0.10,0.30,0.12,0.07,0.09,0.01,0.55
8/7/2018 1:50 AM,204.60,5.74,-0.01,92,207.50,6.96,-0.04,73,204.70,8.13,-0.20,15,206.00,7.17,-0.13,11,209.80,8.57,-0.24,5,209.50,10.30,0.03,2,249.80,10.19,-1.56,2,204.30,7.12,-1.01,0,128.40,11.05,-0.58,0,299.90,2.08,-0.25,0,239.60,11.80,-2.27,0,0.08,0.07,0.06,0.18,0.06,0.05,0.23,0.04,0.03,0.00,0.00
8/7/2018 2:00 AM,204.60,6.94,-0.07,95,203.70,6.94,-0.01,87,206.40,7.87,0.05,56,209.00,9.75,0.04,26,204.50,9.69,-0.23,6,201.50,8.53,-0.26,11,214.50,10.43,-0.51,4,197.90,9.38,-0.85,1,216.90,12.37,-1.14,0,135.90,24.00,1.40,1,145.00,26.99,1.14,0,0.07,0.07,0.10,0.09,0.05,0.16,0.16,0.14,0.04,0.10,0.08
8/7/2018 2:10 AM,205.00,6.49,-0.03,96,205.70,7.79,0.00,73,210.70,7.65,0.00,36,209.60,7.93,-0.05,21,209.50,9.13,-0.10,12,206.50,9.88,-0.10,12,210.30,11.78,-0.08,7,208.30,14.57,0.03,1,178.80,24.06,2.01,0,249.20,13.95,-2.58,0,187.60,9.15,-0.89,0,0.08,0.06,0.07,0.06,0.06,0.05,0.06,0.03,0.10,0.08,0.12
8/7/2018 2:20 AM,209.20,6.73,-0.08,95,210.70,7.27,-0.02,86,207.20,8.37,-0.05,24,204.90,9.05,-0.24,20,208.40,9.13,-0.03,23,213.30,9.28,-0.01,6,197.10,9.72,0.10,1,210.80,14.25,0.32,3,181.90,13.94,0.41,0,183.20,21.59,0.87,0,180.80,28.18,1.87,0,0.07,0.10,0.08,0.10,0.08,0.08,0.11,0.10,0.13,0.05,0.00
8/7/2018 2:30 AM,209.70,6.26,-0.03,98,211.30,7.67,-0.02,92,211.80,7.62,-0.01,70,206.50,8.76,-0.09,42,197.50,9.16,0.05,36,203.00,11.86,0.15,9,173.80,14.08,0.87,2,162.00,7.90,-0.24,1,144.60,12.46,-0.79,2,161.50,22.69,1.35,0,133.90,20.77,-0.30,0,0.08,0.07,0.14,0.10,0.15,0.07,0.21,0.27,0.19,0.13,0.12
8/7/2018 2:40 AM,205.60,6.74,-0.05,97,207.20,7.64,-0.06,88,207.50,7.88,-0.12,80,206.70,8.86,-0.19,51,202.60,9.73,-0.24,25,207.30,8.85,-0.38,7,210.30,9.84,-0.32,11,204.00,10.58,-0.27,3,51.10,12.75,-1.49,0,292.20,8.94,-0.84,0,57.70,6.13,-2.24,0,0.08,0.06,0.08,0.14,0.10,0.16,0.31,0.16,0.03,0.11,0.09
8/7/2018 2:50 AM,206.40,6.31,-0.03,97,208.50,7.44,0.00,92,205.40,7.91,-0.08,88,208.50,8.27,-0.08,61,207.20,8.79,-0.23,48,210.20,9.44,-0.17,33,208.80,11.00,-0.29,14,206.20,11.79,-0.17,18,92.40,2.12,-1.18,1,113.60,11.27,0.01,1,119.90,5.02,0.59,0,0.08,0.07,0.06,0.08,0.08,0.10,0.05,0.08,0.32,0.33,0.25
8/7/2018 3:00 AM,210.30,6.86,-0.03,98,213.30,7.54,-0.06,94,210.40,7.64,-0.05,90,206.00,8.50,-0.01,78,212.70,8.35,-0.10,60,206.40,9.58,-0.07,40,211.60,9.41,-0.17,29,214.50,10.32,-0.23,10,222.60,15.25,-0.31,2,233.10,14.54,1.94,1,197.90,9.20,1.58,0,0.07,0.08,0.10,0.12,0.17,0.17,0.16,0.14,0.18,0.27,0.15
8/7/2018 3:10 AM,215.90,6.77,0.13,95,211.80,7.17,0.30,87,201.30,6.96,0.24,23,207.70,7.42,0.11,13,172.60,10.45,0.35,6,178.80,6.56,-0.35,1,218.50,11.30,0.15,7,161.60,5.32,-0.61,0,208.40,7.34,-0.87,1,137.40,12.09,-0.12,0,121.10,10.13,-0.46,1,0.09,0.14,0.17,0.24,0.24,0.53,0.14,0.37,0.17,0.10,0.24
8/7/2018 3:20 AM,210.40,7.00,0.08,95,210.00,7.14,0.10,87,214.10,8.49,0.17,33,210.60,9.61,0.25,21,225.10,7.87,-0.26,2,238.40,7.23,0.20,1,191.50,12.87,1.24,3,254.80,4.85,0.52,1,91.70,10.76,0.25,0,258.20,7.00,2.62,0,347.90,8.92,0.91,0,0.08,0.08,0.09,0.13,0.09,0.23,0.20,0.23,0.01,0.16,0.00
8/7/2018 3:30 AM,208.40,5.85,-0.07,95,208.60,6.50,-0.04,89,210.30,6.59,-0.06,62,199.40,7.41,0.06,41,221.60,6.13,-0.24,20,203.10,8.84,-0.28,11,187.40,7.65,0.18,13,166.10,12.81,1.08,3,232.10,5.91,0.69,0,102.80,10.31,3.64,1,103.80,26.98,2.52,0,0.08,0.16,0.24,0.25,0.18,0.13,0.32,0.18,0.49,0.41,0.06
8/7/2018 3:40 AM,209.60,6.70,-0.07,97,207.80,7.02,-0.07,92,216.60,7.55,-0.02,65,213.00,7.30,-0.01,41,225.10,7.91,-0.10,22,211.50,7.89,-0.14,31,215.10,11.94,-0.14,9,209.20,10.04,-0.14,18,273.80,14.73,1.59,1,191.80,5.88,-0.64,0,282.00,12.49,3.12,0,0.08,0.10,0.11,0.13,0.20,0.19,0.13,0.07,0.23,0.39,0.12
8/7/2018 3:50 AM,216.00,7.24,0.05,93,215.40,7.05,0.23,54,213.40,8.69,0.28,24,217.60,7.35,-0.01,0,211.40,10.82,0.00,1,215.80,6.10,0.37,4,231.40,17.21,-0.03,4,210.70,11.81,0.01,0,332.60,5.84,2.37,0,293.80,26.35,-0.14,1,65.30,10.43,2.02,0,0.08,0.11,0.20,0.20,0.22,0.36,0.17,0.10,0.19,0.13,0.00
8/7/2018 4:00 AM,214.00,7.67,0.14,91,218.60,8.47,0.21,55,208.40,8.88,-0.11,30,216.30,10.73,0.08,18,202.00,11.01,0.06,28,219.30,8.66,-0.02,19,206.70,9.19,-0.29,2,153.40,18.51,2.17,0,268.50,6.51,0.93,0,236.70,16.36,1.32,0,261.90,14.66,1.95,0,0.11,0.09,0.17,0.14,0.14,0.17,0.17,0.29,0.13,0.20,0.06
8/7/2018 4:10 AM,210.10,6.95,0.00,91,210.00,8.20,0.09,49,204.80,7.50,0.14,25,226.90,7.60,0.40,20,224.40,8.19,0.10,7,226.60,12.35,0.40,14,218.50,6.17,0.25,17,216.20,11.78,1.99,1,232.10,8.87,3.24,3,265.20,7.85,3.55,0,215.10,8.96,3.19,0,0.12,0.11,0.20,0.25,0.18,0.20,0.31,0.54,0.15,0.09,0.06
8/7/2018 4:20 AM,212.40,7.28,-0.02,92,218.00,8.39,-0.10,66,217.70,9.31,-0.02,57,219.00,8.74,-0.07,42,215.60,9.38,-0.01,13,218.50,12.46,0.08,3,212.90,10.05,0.03,1,79.30,5.09,4.54,0,37.40,5.81,3.33,0,181.80,11.53,2.39,0,359.90,13.74,1.01,0,0.08,0.09,0.09,0.12,0.11,0.14,0.21,0.11,0.13,0.06,0.02
8/7/2018 4:30 AM,217.70,8.77,0.11,94,217.00,8.53,0.01,89,216.30,9.72,-0.05,88,220.20,10.18,-0.06,88,217.20,10.78,-0.12,37,257.40,11.72,1.14,6,90.20,6.31,4.93,0,287.50,15.87,1.60,0,104.40,10.11,4.17,0,123.90,3.16,4.45,2,96.00,5.55,3.41,1,0.08,0.12,0.09,0.15,0.18,0.40,0.11,0.03,0.06,0.19,0.04
8/7/2018 4:40 AM,214.20,8.08,0.02,93,217.40,8.92,0.07,71,216.10,8.12,-0.15,39,214.60,8.99,-0.17,30,213.10,10.05,-0.10,17,199.20,9.98,-0.08,1,196.50,11.62,0.27,5,212.80,14.96,2.17,0,359.90,14.26,1.05,0,293.90,15.72,2.54,0,115.80,2.68,4.85,1,0.11,0.10,0.11,0.04,0.08,0.10,0.26,0.24,0.01,0.01,0.12
8/7/2018 4:50 AM,212.60,8.16,-0.07,96,212.70,8.77,-0.03,91,216.30,9.10,-0.13,81,217.40,9.21,-0.17,58,215.40,10.65,-0.16,52,214.80,10.71,-0.10,65,218.00,11.02,-0.08,52,211.30,6.43,-0.43,14,303.60,12.45,2.00,0,244.70,10.57,2.82,0,273.90,18.71,2.79,0,0.09,0.10,0.08,0.12,0.13,0.10,0.12,0.76,0.07,0.31,0.06
8/7/2018 5:00 AM,205.40,7.17,0.00,96,209.60,7.59,-0.03,91,212.70,8.02,-0.07,79,213.90,7.97,-0.15,63,211.70,9.76,-0.08,77,212.40,9.94,0.03,83,213.60,10.83,-0.04,29,299.80,6.60,1.27,6,170.20,6.45,4.80,1,297.30,16.31,2.96,0,176.70,19.98,4.16,0,0.09,0.08,0.12,0.15,0.11,0.13,0.08,1.06,0.17,0.02,0.11
8/7/2018 5:10 AM,207.70,6.99,-0.02,96,205.00,8.11,-0.05,92,206.50,8.40,0.03,91,203.70,8.89,0.02,88,200.00,9.28,0.18,51,207.30,5.15,0.84,14,177.60,10.67,0.85,7,85.20,9.05,7.47,0,137.80,1.89,6.32,1,50.50,7.78,6.84,1,151.90,13.19,6.16,0,0.09,0.14,0.23,0.16,0.21,1.63,0.26,0.09,0.54,0.08,0.23
8/7/2018 5:20 AM,206.90,6.31,0.05,93,205.80,7.63,0.14,83,206.40,8.57,0.03,57,210.40,9.19,-0.14,48,208.40,7.90,0.06,31,194.30,8.70,0.50,22,237.90,3.61,1.06,1,145.10,19.98,3.60,0,83.30,20.32,3.79,0,178.10,20.21,4.21,0,303.60,22.42,3.61,0,0.08,0.20,0.12,0.15,0.15,0.22,1.09,0.00,0.07,0.04,0.01
8/7/2018 5:30 AM,202.10,5.59,-0.02,98,210.60,6.56,0.00,94,204.00,7.61,0.01,91,208.10,7.76,-0.05,87,209.30,8.72,-0.06,54,208.90,9.58,-0.06,25,228.40,9.97,0.15,3,246.50,8.15,0.55,0,180.00,0.00,0.00,0,119.90,18.20,2.15,0,240.10,19.25,1.71,0,0.10,0.11,0.09,0.07,0.07,0.05,0.11,0.07,0.00,0.00,0.00
8/7/2018 5:40 AM,204.20,7.17,0.00,96,207.50,7.72,0.06,92,211.80,8.40,0.02,90,212.40,9.21,-0.16,88,216.10,9.36,-0.20,86,213.30,10.26,-0.06,47,183.80,7.38,0.75,12,324.60,17.81,-3.27,2,150.60,25.06,3.46,1,247.80,17.68,1.87,0,249.70,20.43,2.25,0,0.08,0.08,0.14,0.15,0.15,0.15,0.53,0.09,0.17,0.12,0.04
8/7/2018 5:50 AM,212.80,7.31,-0.11,97,210.50,7.93,-0.01,92,210.50,8.55,-0.09,83,214.20,8.56,-0.06,71,206.40,9.30,0.06,85,208.50,10.31,0.17,34,222.20,10.95,1.02,3,161.30,5.99,7.29,0,293.20,20.72,3.35,0,64.60,8.20,6.89,1,122.00,10.40,5.74,3,0.11,0.17,0.24,0.22,0.17,0.29,0.33,0.28,0.01,0.08,0.07
8/7/2018 6:00 AM,209.60,7.25,-0.08,97,209.20,8.20,-0.03,92,209.00,8.62,-0.01,91,211.20,8.72,-0.09,91,212.70,9.32,-0.07,88,218.60,11.24,0.13,19,220.30,5.42,0.80,0,288.00,13.88,2.22,0,359.90,14.96,1.10,0,47.40,22.03,5.02,0,93.00,6.15,5.29,0,0.07,0.08,0.10,0.12,0.06,0.17,0.18,0.13,0.00,0.06,0.08
8/7/2018 6:10 AM,210.60,7.44,-0.07,96,214.20,8.25,-0.08,94,211.70,8.91,-0.07,87,208.90,9.14,-0.06,86,219.90,10.97,-0.01,21,191.50,40.10,-1.82,0,240.10,10.37,0.92,0,193.60,23.98,4.75,0,174.70,58.69,2.86,0,199.20,43.04,-0.93,0,60.10,7.25,-0.64,0,0.07,0.09,0.07,0.10,0.12,0.03,0.07,0.03,0.00,0.04,0.00
8/7/2018 6:20 AM,207.70,6.52,-0.02,97,208.80,7.42,-0.01,93,210.70,8.24,-0.06,90,211.40,8.14,-0.03,89,211.50,10.23,-0.12,88,212.40,11.13,-0.34,43,235.50,11.40,-0.56,14,85.20,31.18,0.65,2,152.90,38.23,-1.95,1,166.70,33.46,2.54,1,182.90,17.04,-5.77,1,0.08,0.16,0.17,0.25,0.17,0.36,0.39,0.34,0.20,0.16,0.25
8/7/2018 6:30 AM,207.30,6.21,0.04,96,208.70,7.01,-0.03,92,227.30,7.93,-0.24,90,230.90,8.57,-0.39,78,228.60,8.38,-0.38,81,245.70,10.88,-0.97,44,183.90,9.67,-3.70,0,131.40,5.87,-4.87,1,187.50,2.13,-4.03,1,195.80,3.02,-3.69,1,339.00,11.94,-2.39,0,0.12,0.24,0.20,0.16,0.20,0.19,2.35,0.51,0.41,0.61,0.19
8/7/2018 6:40 AM,206.40,6.69,-0.06,98,205.60,7.18,0.00,94,222.00,7.32,-0.31,92,227.00,7.77,-0.32,88,223.20,9.27,-0.33,89,246.00,10.93,-0.90,60,36.70,10.04,-4.29,6,202.40,1.68,-4.16,8,78.70,7.88,-5.01,2,164.10,6.43,-4.86,3,110.00,7.40,-5.35,2,0.07,0.09,0.27,0.26,0.16,0.33,0.26,0.87,0.24,0.56,0.65
8/7/2018 6:50 AM,201.80,5.67,0.02,97,205.70,6.31,-0.07,95,219.50,7.19,-0.32,92,223.50,7.27,-0.50,91,217.50,7.73,-0.41,91,223.40,7.24,-0.68,70,67.00,8.39,-4.79,13,80.80,3.89,-4.84,9,147.50,7.41,-5.42,6,94.00,8.62,-5.44,20,144.60,7.14,-5.42,12,0.07,0.13,0.28,0.32,0.29,0.62,0.69,0.78,1.36,0.29,0.30
8/7/2018 7:00 AM,202.20,5.64,-0.04,97,203.10,6.43,-0.07,97,213.20,7.06,-0.22,97,230.00,7.44,-0.48,96,224.20,9.02,-0.57,94,214.30,10.97,-1.71,65,121.40,9.42,-5.43,43,147.30,8.95,-5.59,37,154.70,9.06,-5.44,28,154.10,11.88,-5.74,42,135.60,10.87,-5.85,29,0.07,0.15,0.20,0.20,0.32,0.27,0.24,0.25,0.29,0.19,0.19
8/7/2018 7:10 AM,203.00,6.17,-0.02,98,203.60,6.62,-0.02,98,202.60,7.34,-0.05,96,208.10,7.88,-0.13,95,205.30,9.18,-0.10,92,125.70,10.42,-1.81,25,154.20,12.36,-5.72,28,141.80,20.48,-4.86,20,150.20,14.59,-5.42,27,155.50,12.98,-5.97,25,146.80,13.11,-6.09,24,0.06,0.09,0.22,0.23,0.25,0.45,0.48,0.33,0.25,0.44,0.29
8/7/2018 7:20 AM,204.10,5.97,-0.04,97,206.40,6.75,-0.01,98,207.00,7.35,0.00,96,212.10,7.87,-0.03,93,213.60,8.53,-0.01,92,136.70,39.72,0.56,1,242.20,12.07,-8.54,1,88.20,25.25,-3.59,0,108.40,51.05,-2.34,1,127.70,32.94,-5.25,0,122.80,34.13,-5.50,0,0.07,0.05,0.11,0.04,0.08,0.21,0.25,0.17,0.19,0.06,0.06
8/7/2018 7:30 AM,209.20,5.83,0.03,98,212.70,6.42,0.03,96,213.60,7.00,-0.01,96,211.30,7.44,0.03,94,217.70,8.54,-0.04,92,175.30,11.50,-0.98,0,263.00,12.42,-7.79,1,103.20,48.28,-1.92,0,89.40,14.47,-2.08,0,326.70,16.39,-7.25,5,297.80,16.09,-6.98,0,0.07,0.07,0.11,0.07,0.11,0.79,0.20,0.14,0.87,0.28,0.19
8/7/2018 7:40 AM,209.80,5.42,-0.02,98,212.20,6.05,-0.04,95,212.50,7.16,-0.11,95,215.50,7.06,-0.09,93,218.50,8.31,-0.05,90,221.50,23.16,-2.36,15,239.20,40.16,-6.21,7,240.80,59.18,-4.32,1,239.00,56.49,-4.66,3,232.80,6.42,-9.14,3,239.00,64.20,-3.93,4,0.07,0.10,0.12,0.14,0.13,0.22,0.05,0.14,0.04,0.12,0.04
8/7/2018 7:50 AM,206.10,5.50,-0.03,97,209.20,6.44,-0.06,96,212.50,6.82,-0.04,95,214.50,7.20,-0.06,96,220.00,7.97,-0.07,91,228.00,6.46,-0.20,27,4.70,7.58,-9.19,0,276.50,55.47,-1.33,0,0.40,45.98,-6.45,0,299.20,50.82,-1.38,1,320.00,46.81,-2.74,0,0.07,0.13,0.09,0.04,0.07,1.21,0.10,0.06,0.10,0.16,0.06
8/7/2018 8:00 AM,205.10,5.90,-0.01,97,209.60,6.55,0.00,97,206.30,5.93,-0.17,97,211.40,6.98,-0.12,95,226.50,5.66,-0.70,87,336.60,18.92,-6.77,14,332.90,16.52,-6.89,25,338.20,16.44,-6.61,17,322.20,13.23,-7.44,9,327.00,17.28,-6.01,20,326.70,14.74,-7.41,16,0.06,0.05,0.27,0.14,0.53,0.16,0.24,0.11,0.16,0.16,0.07
8/7/2018 8:10 AM,206.00,5.72,-0.05,99,214.70,7.03,-0.07,98,211.10,7.05,-0.09,99,207.40,6.79,-0.30,96,212.00,7.42,-0.41,97,184.90,6.86,-3.33,41,92.60,6.33,-5.26,51,100.60,3.90,-4.41,40,36.20,5.38,-5.59,45,140.00,3.21,-5.79,52,57.20,2.85,-5.91,34,0.11,0.07,0.10,0.23,0.29,1.71,0.56,1.60,0.61,1.44,1.61
8/7/2018 8:20 AM,208.20,5.52,0.00,98,207.60,6.30,0.00,97,216.00,6.93,-0.12,97,222.50,6.81,-0.38,97,218.60,7.75,-0.29,96,253.70,8.29,-3.22,87,74.40,3.63,-5.98,75,169.10,6.06,-6.51,54,69.00,6.40,-6.44,57,121.90,6.57,-6.15,66,139.70,6.53,-6.97,51,0.07,0.10,0.15,0.27,0.19,0.81,0.99,0.83,0.38,0.48,0.77
8/7/2018 8:30 AM,204.80,5.64,-0.04,97,207.60,6.10,0.04,97,208.00,6.72,0.01,98,213.00,6.69,-0.20,95,214.00,8.42,-0.24,96,230.10,9.33,-2.85,82,71.60,4.92,-5.79,48,68.10,6.66,-6.58,33,128.90,2.83,-6.20,26,52.10,9.30,-6.58,42,75.90,4.77,-6.28,41,0.06,0.09,0.13,0.25,0.19,1.11,2.20,0.76,1.07,0.39,0.36
8/7/2018 8:40 AM,206.50,5.55,-0.07,98,203.40,6.31,0.00,97,206.40,6.80,-0.09,98,205.70,7.39,-0.07,97,213.80,7.25,-0.48,96,276.30,8.69,-3.56,66,348.70,6.42,-6.54,38,305.50,5.47,-6.10,42,324.40,3.72,-6.65,34,334.10,8.32,-6.37,38,315.30,6.77,-5.90,38,0.08,0.05,0.18,0.16,0.27,0.57,0.59,0.79,1.02,0.57,0.59
8/7/2018 8:50 AM,206.50,6.00,-0.08,97,204.00,6.46,0.03,97,219.80,7.31,-0.38,95,208.30,6.58,-0.33,96,218.30,8.89,-0.57,92,186.50,2.95,-2.18,86,308.70,10.92,-6.59,35,300.30,6.57,-7.32,36,341.30,4.71,-6.41,45,321.10,12.56,-6.92,37,268.70,2.26,-6.60,38,0.06,0.09,0.26,0.30,0.33,1.01,0.40,0.95,4.51,0.40,0.56
8/7/2018 9:00 AM,203.10,6.26,-0.03,98,207.10,6.82,-0.09,98,212.40,7.74,-0.25,97,206.30,8.35,-0.28,96,202.60,11.11,-0.72,93,177.80,10.38,-3.90,71,144.60,4.45,-6.60,54,243.50,0.94,-7.78,43,99.70,5.64,-7.51,51,87.40,3.02,-6.65,55,123.50,6.53,-7.75,48,0.06,0.13,0.20,0.28,0.25,0.45,0.64,9.23,0.79,0.54,0.47
8/7/2018 9:10 AM,205.00,6.00,-0.08,97,200.20,7.14,-0.08,97,198.20,9.30,-0.35,94,205.20,9.94,-0.86,92,209.50,14.27,-1.11,89,224.30,9.28,-4.55,68,291.20,3.13,-7.82,41,136.20,0.49,-7.08,31,351.30,5.54,-7.80,45,38.40,3.31,-8.04,39,305.80,3.81,-6.78,40,0.08,0.14,0.22,0.25,0.18,0.65,0.68,0.89,0.42,0.92,0.97
8/7/2018 9:20 AM,203.70,5.60,-0.03,97,200.20,6.09,-0.04,96,200.70,5.94,-0.27,95,198.70,7.54,-0.32,96,196.50,7.31,-0.58,92,142.00,3.76,-3.42,74,29.00,7.97,-5.47,59,18.00,4.77,-5.22,60,37.20,6.66,-5.49,52,32.10,8.50,-5.60,58,56.70,4.98,-4.87,57,0.06,0.12,0.27,0.26,0.33,1.10,0.50,0.35,0.46,0.41,0.70
8/7/2018 9:30 AM,202.70,5.93,-0.07,98,202.30,6.74,-0.07,97,198.00,7.40,-0.15,96,203.70,9.55,-0.45,95,204.30,10.99,-0.79,93,215.20,14.13,-2.67,72,259.50,4.93,-6.68,41,243.60,4.88,-7.30,37,325.20,1.24,-6.24,35,185.60,1.37,-7.03,33,234.90,1.11,-7.08,39,0.06,0.11,0.21,0.24,0.31,0.32,0.47,0.49,0.98,1.92,4.90
8/7/2018 9:40 AM,201.00,5.82,-0.02,98,199.10,6.68,0.01,97,206.00,7.14,-0.06,97,208.60,7.65,-0.06,98,214.70,8.49,0.03,95,210.60,9.02,-0.14,80,174.40,9.99,-0.63,23,229.90,6.71,0.21,29,91.30,17.42,-2.21,13,170.20,15.26,-1.45,24,186.70,5.44,-0.05,30,0.07,0.06,0.04,0.04,0.18,0.18,0.46,0.96,8.96,0.78,0.94
8/7/2018 9:50 AM,197.90,5.86,-0.01,97,202.10,6.89,-0.02,97,205.00,7.11,-0.05,98,207.90,7.51,-0.09,98,213.60,9.66,-0.43,95,224.60,9.53,-1.53,89,249.60,15.36,-3.06,72,224.10,4.28,-3.40,87,309.00,4.25,-5.72,58,70.10,5.58,-5.04,40,176.70,6.76,-4.52,75,0.06,0.06,0.06,0.05,0.25,0.53,0.33,1.16,1.15,0.86,2.45
8/7/2018 10:00 AM,192.50,6.09,-0.01,97,194.90,6.83,-0.05,98,200.30,7.17,-0.03,98,202.40,8.04,-0.01,98,221.90,10.57,-0.81,95,221.80,8.99,-1.91,87,211.10,12.07,-1.46,86,251.20,12.27,-2.87,85,307.70,0.97,-4.53,57,177.20,2.12,-2.43,86,234.80,12.29,-1.41,88,0.06,0.05,0.05,0.09,0.24,0.55,0.36,0.47,1.06,1.25,0.32
8/7/2018 10:10 AM,190.80,6.31,0.01,98,195.30,6.67,-0.02,97,200.60,7.56,-0.07,97,200.00,8.31,-0.20,98,202.40,10.19,-0.27,94,213.80,16.42,-2.02,70,235.90,17.69,-2.71,36,216.20,20.67,-2.64,57,260.70,8.35,-5.10,49,203.80,16.53,-3.26,47,213.70,24.07,-2.85,62,0.06,0.09,0.08,0.16,0.17,0.31,0.25,0.24,0.72,0.49,0.23
8/7/2018 10:20 AM,196.30,6.43,-0.04,98,194.60,7.18,-0.03,98,198.50,7.79,-0.04,98,200.00,8.27,-0.04,98,204.10,8.54,-0.04,95,207.90,3.62,-0.54,88,291.80,1.49,-1.89,57,208.50,14.57,-2.15,50,284.40,4.69,-1.88,65,144.10,5.55,-3.21,44,342.60,3.71,-3.53,31,0.06,0.05,0.05,0.06,0.12,0.64,0.40,0.39,1.02,1.04,0.64
8/7/2018 10:30 AM,202.70,6.04,-0.06,98,199.30,6.92,0.00,98,202.70,7.39,-0.02,97,211.80,8.03,-0.13,97,222.90,8.73,-0.23,95,221.60,8.48,-0.03,94,206.90,4.38,0.30,84,207.20,6.68,0.26,66,241.40,10.13,0.42,50,317.00,5.96,0.01,45,273.70,4.51,0.47,45,0.07,0.06,0.05,0.09,0.21,0.24,0.65,2.81,0.42,1.06,1.60
8/7/2018 10:40 AM,210.80,5.85,-0.10,97,210.10,6.82,-0.08,97,209.40,7.56,-0.03,98,211.30,7.98,-0.05,98,216.40,8.76,-0.11,98,226.90,8.28,-0.16,95,222.60,9.38,-0.13,90,249.20,5.38,-0.39,86,243.00,7.26,-1.50,56,206.90,7.03,-0.16,60,218.40,1.98,-0.64,38,0.06,0.06,0.04,0.04,0.04,0.27,0.31,0.95,0.92,1.31,1.34
8/7/2018 10:50 AM,213.20,6.06,-0.07,98,213.50,6.95,0.00,98,217.50,7.51,-0.06,99,215.50,7.85,-0.07,98,214.00,8.88,0.07,98,217.60,9.61,-0.12,98,217.70,10.07,-0.11,94,216.10,11.35,-0.11,74,264.60,4.79,-0.79,52,247.90,6.91,0.33,65,249.10,14.32,0.83,40,0.07,0.05,0.05,0.04,0.11,0.07,0.19,0.39,0.93,1.64,0.55
8/7/2018 11:00 AM,218.50,5.95,-0.05,98,217.30,7.00,0.00,99,218.00,7.38,0.00,98,220.80,7.39,-0.01,99,216.80,8.71,-0.03,99,216.70,9.33,-0.05,98,216.90,9.74,-0.09,96,218.40,11.68,-0.09,93,235.20,13.20,-0.47,57,232.30,8.25,-0.58,39,224.90,9.14,-1.19,51,0.07,0.06,0.05,0.07,0.08,0.07,0.17,0.21,0.36,0.73,0.36
8/7/2018 11:10 AM,210.20,6.07,-0.07,98,209.00,6.96,0.02,98,212.60,7.31,0.00,97,215.50,7.93,0.02,96,212.30,7.91,-0.06,96,213.20,8.24,-0.14,97,215.30,10.07,0.00,96,183.60,9.10,-0.20,70,307.00,8.25,-0.72,54,242.70,15.71,-0.13,59,206.50,7.18,0.61,48,0.07,0.08,0.05,0.11,0.17,0.24,0.17,0.60,0.60,0.41,1.50
8/7/2018 11:20 AM,221.70,6.01,-0.16,98,217.90,6.46,-0.02,98,217.30,7.17,-0.03,98,219.60,7.34,-0.05,97,219.60,7.92,-0.03,98,218.70,8.74,-0.04,99,220.00,9.91,-0.02,96,207.40,6.92,-0.91,62,97.70,9.19,-1.62,48,126.10,10.85,-0.71,40,167.70,9.87,0.23,58,0.15,0.10,0.06,0.05,0.07,0.05,0.15,0.70,0.38,1.26,0.51
8/7/2018 11:30 AM,219.10,6.71,-0.03,98,221.00,7.27,-0.06,99,221.00,7.95,-0.06,99,220.30,8.26,-0.13,99,220.70,9.19,-0.15,99,222.60,9.75,-0.17,98,218.30,9.80,-0.16,91,243.70,8.34,0.06,41,302.70,5.09,-0.45,31,265.00,8.86,0.26,40,246.70,7.37,0.21,58,0.08,0.10,0.07,0.05,0.06,0.04,0.27,0.32,0.61,0.42,0.44
8/7/2018 11:40 AM,221.10,6.55,-0.04,98,223.20,6.90,-0.10,97,217.70,7.82,-0.02,98,222.70,7.77,-0.06,98,221.60,8.65,-0.09,99,224.40,9.35,-0.10,99,226.00,10.42,-0.20,95,234.80,7.09,-0.24,77,236.20,8.36,0.13,91,229.10,9.19,0.01,89,232.60,11.13,-0.11,84,0.08,0.15,0.06,0.11,0.04,0.05,0.19,0.44,0.31,0.34,0.25
8/7/2018 11:50 AM,214.70,5.73,-0.01,98,217.90,6.42,-0.02,98,213.40,6.85,-0.02,98,219.10,6.81,-0.07,99,223.40,7.74,-0.11,99,220.50,8.25,-0.09,99,223.90,8.91,-0.08,98,223.10,9.31,-0.09,93,232.20,6.83,-0.06,93,229.20,7.73,0.10,90,219.00,11.22,0.03,80,0.08,0.07,0.10,0.10,0.08,0.04,0.09,0.30,0.33,0.30,0.31
8/7/2018 12:00 PM,207.70,5.43,-0.05,98,207.90,5.95,0.01,98,207.00,6.33,-0.02,98,204.10,6.65,0.01,96,212.40,7.02,-0.11,96,213.40,7.91,-0.13,97,215.90,7.81,-0.12,97,211.40,9.49,-0.26,90,194.10,10.46,-0.16,81,223.60,8.58,-0.43,73,208.00,15.71,-1.06,66,0.09,0.08,0.09,0.16,0.22,0.12,0.15,0.27,0.45,0.47,0.50
8/7/2018 12:10 PM,215.40,5.91,-0.13,99,208.50,6.13,-0.08,98,211.20,6.48,-0.09,97,211.60,6.93,-0.05,99,212.20,7.77,-0.10,97,216.60,7.47,-0.12,98,216.20,7.94,-0.16,98,216.10,8.20,-0.08,97,203.80,5.36,0.13,89,231.90,5.02,-0.15,76,213.50,4.85,-0.04,67,0.12,0.13,0.14,0.15,0.14,0.14,0.08,0.19,0.69,0.78,0.43
8/7/2018 12:20 PM,205.90,5.35,0.02,99,210.80,5.59,0.08,99,207.10,5.74,0.18,98,209.50,5.87,0.13,98,213.40,6.58,-0.04,97,206.80,6.51,0.00,96,215.90,7.33,-0.05,97,221.40,7.40,-0.06,96,231.20,5.31,-0.06,92,179.00,7.24,0.64,88,168.30,6.07,0.26,88,0.10,0.10,0.13,0.16,0.19,0.24,0.27,0.18,0.71,0.47,0.72
8/7/2018 12:30 PM,206.70,6.03,0.02,99,206.20,6.35,0.02,99,209.70,6.59,0.06,98,206.90,6.55,0.11,96,210.00,6.62,-0.13,93,193.10,7.78,-0.09,88,207.60,9.50,-0.41,90,201.40,7.27,-0.25,92,209.60,6.48,0.00,91,222.20,4.43,0.37,68,157.80,17.18,0.18,53,0.09,0.08,0.12,0.18,0.28,0.37,0.27,0.36,0.39,0.53,0.46